Simultaneous Nadir Overpasses (SNOs) Predictions

Prediction of SNOs between AURA and NPP Satellite Orbit:

Table of predicted SNOs for the next 14.0 days since TLE Epoch: 3/7/2020
Index Date (AURA) Time (AURA) Lat,Lon (AURA) SZA (AURA ) Date (NPP) Time (NPP) Lat,Lon (NPP) SZA (NPP ) Distance(km) Time Diff (sec)
1 03/08/2020 11:25:14 79.50, -94.40 97.39 03/08/2020 11:24:15 79.49, -94.49 97.45 2.07 59
2 03/08/2020 12:14:35 -79.72, 74.88 82.97 03/08/2020 12:14:53 -79.72, 74.84 82.98 0.68 18
3 03/11/2020 03:41:42 79.56, 21.91 96.23 03/11/2020 03:41:09 79.55, 21.78 96.28 2.63 33
4 03/11/2020 04:31:03 -79.78,-168.79 84.13 03/11/2020 04:31:47 -79.78,-168.85 84.15 1.21 44
5 03/13/2020 19:58:09 79.65, 138.46 95.02 03/13/2020 19:58:02 79.64, 138.33 95.05 2.75 7
6 03/13/2020 20:47:30 -79.88, -52.19 85.34 03/13/2020 20:48:40 -79.87, -52.25 85.38 1.23 70
7 03/16/2020 11:25:16 -79.53, 85.79 85.86 03/16/2020 11:24:17 -79.52, 85.79 85.81 0.17 59
8 03/16/2020 12:14:37 79.70,-105.27 93.87 03/16/2020 12:14:56 79.70,-105.39 93.88 2.38 19
9 03/19/2020 03:41:42 -79.61,-157.70 87.06 03/19/2020 03:41:09 -79.62,-157.67 87.05 0.68 33
10 03/19/2020 04:31:03 79.79, 11.25 92.66 03/19/2020 04:31:48 79.79, 11.17 92.64 1.54 45




NCC Satellite Simultaneous Nadir Overpasses (SNOs) Prediction Service
